TOM2YB LGKR-EGSS

Flight info

Callsign TOM2YB
Flight time 3h 1m
Altitude 40000
Route OLGAT DCT CRAYE DCT GISAM DCT UVODI DCT ZDA DCT MONFA DCT BAKOR DCT SOTOV DCT KPT DCT VEKIR DCT ADENU L608 LIRSU DCT BUB DCT KOZUF DCT IMPOH DCT SASKI L608 SUMUM Y6 TOSVA
Aircraft B738/M-SDE2E3FGHIRWXY/LB1

Departure

Time 2026-05-07 18:22
Airport Corfu Ioannis Kapodistrias International Airport (LGKR)

Arrival

Time 2026-05-07 21:23
Airport London Stansted Airport (EGSS)
Time Latitude Longitude Altitude Speed Heading
2026-05-07 17:52 39.60667 19.91359 17 ft 0 kts 79°
2026-05-07 18:13 39.60667 19.91358 45 ft 1 kts 79°
2026-05-07 18:13 39.60662 19.91327 18 ft 4 kts 79°
2026-05-07 18:13 39.60659 19.91293 17 ft 4 kts 100°
2026-05-07 18:14 39.60667 19.91274 17 ft 1 kts 168°
2026-05-07 18:16 39.60666 19.91274 17 ft 2 kts 172°
2026-05-07 18:16 39.60646 19.91278 20 ft 3 kts 170°
2026-05-07 18:16 39.60630 19.91266 18 ft 3 kts 223°
2026-05-07 18:16 39.60616 19.91248 18 ft 3 kts 224°
2026-05-07 18:17 39.60598 19.91224 18 ft 6 kts 229°
2026-05-07 18:17 39.60549 19.91167 17 ft 13 kts 211°
2026-05-07 18:17 39.60449 19.91148 18 ft 17 kts 172°
2026-05-07 18:17 39.60320 19.91181 21 ft 19 kts 167°
2026-05-07 18:18 39.60191 19.91216 21 ft 19 kts 171°
2026-05-07 18:18 39.60067 19.91247 20 ft 19 kts 167°
2026-05-07 18:18 39.59989 19.91270 23 ft 19 kts 169°
2026-05-07 18:18 39.59865 19.91299 22 ft 18 kts 168°
2026-05-07 18:19 39.59744 19.91332 22 ft 18 kts 169°
2026-05-07 18:19 39.59619 19.91366 18 ft 18 kts 167°
2026-05-07 18:19 39.59495 19.91400 17 ft 18 kts 168°
2026-05-07 18:19 39.59375 19.91436 17 ft 17 kts 166°
2026-05-07 18:20 39.59257 19.91460 17 ft 17 kts 174°
2026-05-07 18:20 39.59162 19.91507 16 ft 12 kts 203°
2026-05-07 18:20 39.59158 19.91462 16 ft 2 kts 338°
2026-05-07 18:20 39.59175 19.91467 16 ft 4 kts 13°
2026-05-07 18:21 39.59211 19.91467 17 ft 6 kts 353°
2026-05-07 18:21 39.59257 19.91456 17 ft 9 kts 349°
2026-05-07 18:21 39.59654 19.91352 18 ft 117 kts 346°
2026-05-07 18:21 39.60745 19.91058 244 ft 197 kts 348°
2026-05-07 18:22 39.62141 19.90644 1424 ft 213 kts 347°
2026-05-07 18:22 39.63112 19.90355 2233 ft 221 kts 348°
2026-05-07 18:22 39.65017 19.89608 3731 ft 229 kts 329°
2026-05-07 18:22 39.66042 19.88025 4390 ft 235 kts 285°
2026-05-07 18:23 39.66238 19.85938 5097 ft 241 kts 270°
2026-05-07 18:23 39.66930 19.83849 5669 ft 266 kts 308°
2026-05-07 18:23 39.68247 19.82121 6539 ft 271 kts 313°
2026-05-07 18:23 39.69602 19.80386 7323 ft 280 kts 312°
2026-05-07 18:24 39.71012 19.78525 8091 ft 294 kts 311°
2026-05-07 18:24 39.72431 19.76601 9324 ft 293 kts 309°
2026-05-07 18:24 39.73836 19.74656 10439 ft 299 kts 309°
2026-05-07 18:24 39.75289 19.72600 11010 ft 322 kts 308°
2026-05-07 18:25 39.76810 19.70418 11700 ft 335 kts 308°
2026-05-07 18:25 39.78649 19.67766 12968 ft 336 kts 307°
2026-05-07 18:25 39.80195 19.65524 14051 ft 338 kts 307°
2026-05-07 18:25 39.81761 19.63246 15140 ft 333 kts 307°
2026-05-07 18:26 39.83275 19.61045 16592 ft 320 kts 307°
2026-05-07 18:26 39.84727 19.58929 18002 ft 309 kts 306°
2026-05-07 18:26 39.86151 19.56843 19009 ft 308 kts 306°
2026-05-07 18:26 39.87579 19.54743 19839 ft 311 kts 307°
2026-05-07 18:27 39.89018 19.52623 20677 ft 314 kts 307°
2026-05-07 18:27 39.90474 19.50477 21507 ft 317 kts 307°
2026-05-07 18:27 39.91938 19.48321 22342 ft 320 kts 307°
2026-05-07 18:27 39.92917 19.46878 22894 ft 321 kts 307°
2026-05-07 18:28 39.94887 19.43973 23917 ft 325 kts 307°
2026-05-07 18:28 39.96521 19.41896 24580 ft 332 kts 317°
2026-05-07 18:28 39.98463 19.40217 25294 ft 337 kts 322°
2026-05-07 18:28 40.00460 19.38600 25960 ft 339 kts 322°
2026-05-07 18:29 40.02476 19.36976 26602 ft 342 kts 322°
2026-05-07 18:29 40.04503 19.35336 27251 ft 344 kts 321°
2026-05-07 18:29 40.06544 19.33675 27894 ft 347 kts 321°
2026-05-07 18:29 40.08600 19.32004 28528 ft 349 kts 321°
2026-05-07 18:30 40.10643 19.30339 29143 ft 352 kts 321°
2026-05-07 18:30 40.12723 19.28638 29751 ft 354 kts 320°
2026-05-07 18:30 40.14819 19.26917 30334 ft 357 kts 320°
2026-05-07 18:30 40.16928 19.25192 30881 ft 358 kts 320°
2026-05-07 18:31 40.19035 19.23471 31500 ft 356 kts 319°
2026-05-07 18:31 40.21129 19.21757 32119 ft 354 kts 319°
2026-05-07 18:31 40.23215 19.20044 32701 ft 354 kts 318°
2026-05-07 18:31 40.25298 19.18329 33225 ft 354 kts 317°
2026-05-07 18:32 40.27385 19.16608 33760 ft 354 kts 317°
2026-05-07 18:32 40.29439 19.14911 34238 ft 354 kts 316°
2026-05-07 18:32 40.31522 19.13184 34638 ft 355 kts 316°
2026-05-07 18:32 40.33621 19.11442 34995 ft 358 kts 316°
2026-05-07 18:33 40.35739 19.09682 35238 ft 363 kts 316°
2026-05-07 18:33 40.37883 19.07903 35600 ft 365 kts 316°
2026-05-07 18:33 40.40023 19.06130 36091 ft 363 kts 316°
2026-05-07 18:33 40.42151 19.04364 36529 ft 362 kts 316°
2026-05-07 18:34 40.44285 19.02590 36855 ft 364 kts 316°
2026-05-07 18:34 40.46427 19.00806 37145 ft 366 kts 316°
2026-05-07 18:34 40.48555 18.99036 37451 ft 368 kts 316°
2026-05-07 18:34 40.50721 18.97233 37773 ft 369 kts 316°
2026-05-07 18:35 40.52889 18.95429 38093 ft 369 kts 316°
2026-05-07 18:35 40.55063 18.93620 38401 ft 370 kts 316°
2026-05-07 18:35 40.57239 18.91807 38753 ft 370 kts 316°
2026-05-07 18:35 40.59408 18.90001 39045 ft 369 kts 316°
2026-05-07 18:36 40.61585 18.88183 39196 ft 373 kts 316°
2026-05-07 18:36 40.63784 18.86344 39401 ft 375 kts 316°
2026-05-07 18:36 40.65950 18.84533 39650 ft 375 kts 317°
2026-05-07 18:36 40.68154 18.82688 39830 ft 377 kts 317°
2026-05-07 18:37 40.70376 18.80826 39994 ft 379 kts 317°
2026-05-07 18:37 40.74839 18.77086 40061 ft 379 kts 317°
2026-05-07 18:38 40.79282 18.73361 40059 ft 378 kts 317°
2026-05-07 18:38 40.83683 18.69660 40053 ft 377 kts 316°
2026-05-07 18:39 40.88110 18.65938 40069 ft 377 kts 317°
2026-05-07 18:39 40.92542 18.62206 40049 ft 378 kts 316°
2026-05-07 18:40 40.96971 18.58463 40055 ft 378 kts 316°
2026-05-07 18:40 41.01402 18.54711 40055 ft 378 kts 316°
2026-05-07 18:41 41.05801 18.50981 40048 ft 378 kts 316°
2026-05-07 18:41 41.10237 18.47213 40054 ft 379 kts 316°
2026-05-07 18:42 41.14673 18.43439 40060 ft 379 kts 316°
2026-05-07 18:42 41.19122 18.39647 40057 ft 380 kts 316°
2026-05-07 18:43 41.23551 18.35867 40048 ft 381 kts 316°
2026-05-07 18:43 41.28010 18.32055 40048 ft 381 kts 316°
2026-05-07 18:44 41.32470 18.28236 40052 ft 381 kts 316°
2026-05-07 18:44 41.36929 18.24411 40052 ft 381 kts 316°
2026-05-07 18:45 41.41357 18.20606 40052 ft 381 kts 316°
2026-05-07 18:45 41.45812 18.16772 40056 ft 381 kts 316°
2026-05-07 18:46 41.50264 18.12935 40051 ft 381 kts 316°
2026-05-07 18:46 41.54686 18.09053 40052 ft 380 kts 315°
2026-05-07 18:47 41.59060 18.05173 40069 ft 380 kts 315°
2026-05-07 18:47 41.63465 18.01262 40054 ft 380 kts 315°
2026-05-07 18:48 41.67874 17.97346 40049 ft 380 kts 315°
2026-05-07 18:48 41.72282 17.93428 40052 ft 380 kts 315°
2026-05-07 18:49 41.76655 17.89533 40052 ft 380 kts 315°
2026-05-07 18:49 41.81055 17.85607 40049 ft 380 kts 315°
2026-05-07 18:50 41.85456 17.81673 40061 ft 380 kts 315°
2026-05-07 18:50 41.89864 17.77728 40055 ft 381 kts 315°
2026-05-07 18:51 41.94197 17.73741 40056 ft 378 kts 312°
2026-05-07 18:51 41.98407 17.69515 40054 ft 378 kts 311°
2026-05-07 18:52 42.02611 17.65252 40053 ft 379 kts 311°
2026-05-07 18:52 42.06833 17.60993 40073 ft 380 kts 313°
2026-05-07 18:53 42.11055 17.56747 40056 ft 383 kts 313°
2026-05-07 18:53 42.15331 17.52447 40052 ft 385 kts 313°
2026-05-07 18:54 42.19628 17.48121 40050 ft 386 kts 313°
2026-05-07 18:54 42.23941 17.43772 40047 ft 388 kts 313°
2026-05-07 18:55 42.28236 17.39434 40065 ft 389 kts 313°
2026-05-07 18:55 42.32577 17.35039 40056 ft 391 kts 314°
2026-05-07 18:56 42.36945 17.30611 40054 ft 393 kts 314°
2026-05-07 18:56 42.41330 17.26158 40053 ft 395 kts 314°
2026-05-07 18:57 42.45701 17.21712 40049 ft 396 kts 314°
2026-05-07 18:57 42.50115 17.17213 40047 ft 397 kts 314°
2026-05-07 18:58 42.54534 17.12702 40065 ft 398 kts 315°
2026-05-07 18:58 42.58965 17.08167 40058 ft 400 kts 315°
2026-05-07 18:59 42.63379 17.03645 40060 ft 401 kts 315°
2026-05-07 18:59 42.67834 16.99070 40051 ft 402 kts 315°
2026-05-07 19:00 42.72296 16.94480 40050 ft 402 kts 315°
2026-05-07 19:00 42.76762 16.89879 40079 ft 402 kts 316°
2026-05-07 19:01 42.81198 16.85299 40059 ft 403 kts 316°
2026-05-07 19:01 42.85672 16.80671 40056 ft 404 kts 316°
2026-05-07 19:02 42.90146 16.76035 40048 ft 404 kts 316°
2026-05-07 19:02 42.94603 16.71408 40055 ft 404 kts 316°
2026-05-07 19:03 42.99054 16.66778 40061 ft 404 kts 316°
2026-05-07 19:03 43.03520 16.62122 40059 ft 404 kts 316°
2026-05-07 19:04 43.07989 16.57457 40054 ft 404 kts 316°
2026-05-07 19:04 43.12431 16.52737 40054 ft 403 kts 314°
2026-05-07 19:05 43.16662 16.47805 40054 ft 402 kts 313°
2026-05-07 19:05 43.20886 16.42776 40051 ft 403 kts 313°
2026-05-07 19:06 43.25126 16.37748 40061 ft 403 kts 313°
2026-05-07 19:06 43.31515 16.30196 40073 ft 405 kts 313°
2026-05-07 19:07 43.35757 16.25180 40069 ft 406 kts 313°
2026-05-07 19:07 43.40038 16.20109 40077 ft 406 kts 313°
2026-05-07 19:08 43.44322 16.15024 40074 ft 407 kts 313°
2026-05-07 19:08 43.48611 16.09922 40076 ft 408 kts 313°
2026-05-07 19:09 43.52878 16.04837 40075 ft 409 kts 313°
2026-05-07 19:09 43.57183 15.99696 40069 ft 410 kts 313°
2026-05-07 19:10 43.61498 15.94533 40058 ft 411 kts 313°
2026-05-07 19:10 43.65820 15.89353 40049 ft 412 kts 313°
2026-05-07 19:11 43.70114 15.84196 40052 ft 412 kts 313°
2026-05-07 19:11 43.74434 15.78996 40050 ft 412 kts 313°
2026-05-07 19:12 43.78022 15.74671 40051 ft 411 kts 313°
2026-05-07 19:12 43.82332 15.69464 40058 ft 411 kts 313°
2026-05-07 19:13 43.87332 15.63412 40081 ft 411 kts 313°
2026-05-07 19:13 43.91641 15.58183 40064 ft 412 kts 313°
2026-05-07 19:14 43.95224 15.53827 40073 ft 413 kts 313°
2026-05-07 19:14 43.99544 15.48567 40070 ft 413 kts 313°
2026-05-07 19:15 44.04561 15.42444 40074 ft 413 kts 313°
2026-05-07 19:15 44.08877 15.37166 40072 ft 413 kts 312°
2026-05-07 19:16 44.12278 15.32562 40088 ft 409 kts 308°
2026-05-07 19:16 44.16208 15.26827 40078 ft 409 kts 308°
2026-05-07 19:17 44.20127 15.21073 40076 ft 409 kts 308°
2026-05-07 19:17 44.24032 15.15368 40065 ft 410 kts 308°
2026-05-07 19:18 44.27973 15.09625 40056 ft 410 kts 308°
2026-05-07 19:18 44.32553 15.02946 40046 ft 410 kts 308°
2026-05-07 19:19 44.35851 14.98125 40047 ft 410 kts 308°
2026-05-07 19:19 44.39760 14.92402 40046 ft 410 kts 308°
2026-05-07 19:20 44.43692 14.86632 40055 ft 410 kts 308°
2026-05-07 19:20 44.47627 14.80845 40044 ft 410 kts 308°
2026-05-07 19:21 44.51560 14.75050 40046 ft 410 kts 308°
2026-05-07 19:21 44.55491 14.69245 40041 ft 411 kts 308°
2026-05-07 19:22 44.59396 14.63468 40041 ft 411 kts 308°
2026-05-07 19:22 44.63322 14.57646 40038 ft 411 kts 308°
2026-05-07 19:23 44.67246 14.51814 40046 ft 411 kts 308°
2026-05-07 19:23 44.71150 14.46001 40043 ft 412 kts 307°
2026-05-07 19:24 44.75081 14.40134 40038 ft 412 kts 307°
2026-05-07 19:24 44.79013 14.34254 40031 ft 413 kts 307°
2026-05-07 19:25 44.82945 14.28363 40036 ft 412 kts 307°
2026-05-07 19:25 44.86871 14.22468 40032 ft 412 kts 307°
2026-05-07 19:26 44.90766 14.16605 40041 ft 413 kts 307°
2026-05-07 19:26 44.94689 14.10687 40040 ft 413 kts 307°
2026-05-07 19:27 44.98613 14.04757 40053 ft 413 kts 307°
2026-05-07 19:27 45.02534 13.98817 40030 ft 413 kts 307°
2026-05-07 19:28 45.06429 13.92905 40043 ft 414 kts 307°
2026-05-07 19:28 45.10347 13.86945 40036 ft 414 kts 307°
2026-05-07 19:29 45.14267 13.80967 40049 ft 415 kts 307°
2026-05-07 19:29 45.18191 13.74971 40032 ft 415 kts 307°
2026-05-07 19:30 45.22092 13.68998 40028 ft 416 kts 307°
2026-05-07 19:30 45.26017 13.62975 40022 ft 416 kts 307°
2026-05-07 19:31 45.29939 13.56943 40029 ft 416 kts 307°
2026-05-07 19:31 45.33862 13.50896 40020 ft 416 kts 307°
2026-05-07 19:32 45.37776 13.44850 40031 ft 415 kts 307°
2026-05-07 19:32 45.41655 13.38844 40019 ft 415 kts 307°
2026-05-07 19:33 45.45560 13.32786 40019 ft 415 kts 307°
2026-05-07 19:33 45.49489 13.26756 40024 ft 417 kts 309°
2026-05-07 19:34 45.53687 13.21025 40015 ft 418 kts 311°
2026-05-07 19:34 45.57929 13.15417 40009 ft 418 kts 311°
2026-05-07 19:35 45.62180 13.09745 40031 ft 418 kts 311°
2026-05-07 19:35 45.66418 13.04035 40009 ft 419 kts 311°
2026-05-07 19:36 45.70648 12.98304 40016 ft 419 kts 311°
2026-05-07 19:36 45.74857 12.92587 40011 ft 420 kts 311°
2026-05-07 19:37 45.79093 12.86820 40019 ft 420 kts 311°
2026-05-07 19:37 45.83330 12.81040 40024 ft 421 kts 311°
2026-05-07 19:38 45.87570 12.75244 40022 ft 421 kts 311°
2026-05-07 19:38 45.91782 12.69473 40032 ft 422 kts 311°
2026-05-07 19:39 45.96025 12.63646 40024 ft 422 kts 311°
2026-05-07 19:39 46.00271 12.57803 40023 ft 422 kts 311°
2026-05-07 19:40 46.04517 12.51947 40022 ft 423 kts 311°
2026-05-07 19:40 46.08728 12.46125 40028 ft 423 kts 311°
2026-05-07 19:41 46.12972 12.40246 40033 ft 423 kts 311°
2026-05-07 19:41 46.17209 12.34361 40030 ft 423 kts 311°
2026-05-07 19:42 46.21444 12.28468 40024 ft 423 kts 311°
2026-05-07 19:42 46.25561 12.22725 40028 ft 422 kts 311°
2026-05-07 19:43 46.29778 12.16830 40034 ft 422 kts 311°
2026-05-07 19:43 46.33983 12.10939 40053 ft 420 kts 311°
2026-05-07 19:44 46.38170 12.05060 40050 ft 419 kts 311°
2026-05-07 19:44 46.42326 11.99209 40033 ft 419 kts 311°
2026-05-07 19:45 46.46499 11.93322 40033 ft 419 kts 310°
2026-05-07 19:45 46.49212 11.89488 40032 ft 419 kts 311°
2026-05-07 19:46 46.53381 11.83584 40029 ft 419 kts 310°
2026-05-07 19:46 46.57554 11.77662 40044 ft 420 kts 311°
2026-05-07 19:47 46.61736 11.71699 40021 ft 421 kts 310°
2026-05-07 19:47 46.65782 11.65535 40028 ft 422 kts 308°
2026-05-07 19:48 46.69768 11.59329 40018 ft 423 kts 308°
2026-05-07 19:48 46.73804 11.53074 40020 ft 424 kts 308°
2026-05-07 19:49 46.77845 11.46828 40036 ft 423 kts 309°
2026-05-07 19:49 46.81885 11.40575 40077 ft 423 kts 309°
2026-05-07 19:50 46.85901 11.34341 40051 ft 425 kts 309°
2026-05-07 19:50 46.89953 11.28039 40067 ft 425 kts 309°
2026-05-07 19:51 46.94014 11.21753 40055 ft 426 kts 311°
2026-05-07 19:51 46.98705 11.16387 40072 ft 430 kts 320°
2026-05-07 19:52 47.03556 11.11357 40076 ft 429 kts 320°
2026-05-07 19:52 47.08423 11.06270 40072 ft 430 kts 320°
2026-05-07 19:53 47.13283 11.01131 40077 ft 431 kts 320°
2026-05-07 19:53 47.18144 10.95959 40074 ft 432 kts 320°
2026-05-07 19:54 47.23010 10.90770 40065 ft 432 kts 320°
2026-05-07 19:54 47.27878 10.85566 40065 ft 432 kts 320°
2026-05-07 19:55 47.32701 10.80399 40079 ft 432 kts 320°
2026-05-07 19:55 47.37558 10.75182 40062 ft 431 kts 320°
2026-05-07 19:56 47.42404 10.69968 40059 ft 430 kts 320°
2026-05-07 19:56 47.47234 10.64757 40072 ft 429 kts 320°
2026-05-07 19:57 47.52024 10.59579 40058 ft 429 kts 320°
2026-05-07 19:57 47.56824 10.54377 40053 ft 427 kts 320°
2026-05-07 19:58 47.61604 10.49183 40065 ft 425 kts 320°
2026-05-07 19:58 47.66371 10.43992 40058 ft 425 kts 320°
2026-05-07 19:59 47.71099 10.38833 40067 ft 425 kts 320°
2026-05-07 19:59 47.76178 10.34266 40072 ft 432 kts 334°
2026-05-07 20:00 47.81603 10.30541 40072 ft 426 kts 318°
2026-05-07 20:00 47.85794 10.24435 40081 ft 423 kts 311°
2026-05-07 20:01 47.89945 10.18288 40080 ft 424 kts 312°
2026-05-07 20:01 47.94180 10.12134 40078 ft 426 kts 312°
2026-05-07 20:02 47.98442 10.05961 40072 ft 427 kts 312°
2026-05-07 20:02 48.02704 9.99772 40074 ft 428 kts 312°
2026-05-07 20:03 48.06945 9.93595 40072 ft 429 kts 312°
2026-05-07 20:03 48.11213 9.87362 40075 ft 429 kts 312°
2026-05-07 20:04 48.15473 9.81124 40079 ft 428 kts 312°
2026-05-07 20:04 48.19679 9.74950 40074 ft 428 kts 312°
2026-05-07 20:05 48.23923 9.68706 40073 ft 427 kts 312°
2026-05-07 20:05 48.28130 9.62500 40078 ft 427 kts 312°
2026-05-07 20:06 48.32357 9.56250 40069 ft 426 kts 312°
2026-05-07 20:06 48.36578 9.49993 40073 ft 426 kts 312°
2026-05-07 20:07 48.40793 9.43730 40066 ft 426 kts 312°
2026-05-07 20:07 48.45000 9.37463 40068 ft 425 kts 312°
2026-05-07 20:08 48.49174 9.31229 40068 ft 425 kts 312°
2026-05-07 20:08 48.53376 9.24938 40072 ft 425 kts 312°
2026-05-07 20:09 48.57571 9.18643 40073 ft 425 kts 312°
2026-05-07 20:10 48.63857 9.09180 40076 ft 425 kts 312°
2026-05-07 20:10 48.68017 9.02899 40076 ft 426 kts 312°
2026-05-07 20:11 48.72206 8.96557 40072 ft 426 kts 312°
2026-05-07 20:11 48.76396 8.90199 40075 ft 426 kts 312°
2026-05-07 20:12 48.80579 8.83836 40073 ft 426 kts 312°
2026-05-07 20:12 48.84737 8.77494 40065 ft 427 kts 312°
2026-05-07 20:13 48.88898 8.71131 40074 ft 427 kts 311°
2026-05-07 20:13 48.93079 8.64722 40059 ft 427 kts 311°
2026-05-07 20:14 48.97259 8.58300 40060 ft 427 kts 311°
2026-05-07 20:14 49.01430 8.51874 40073 ft 427 kts 311°
2026-05-07 20:15 49.05574 8.45473 40052 ft 427 kts 311°
2026-05-07 20:15 49.09740 8.39023 40057 ft 427 kts 311°
2026-05-07 20:16 49.13896 8.32570 40064 ft 426 kts 311°
2026-05-07 20:16 49.18053 8.26101 40055 ft 426 kts 311°
2026-05-07 20:17 49.22173 8.19673 40071 ft 426 kts 311°
2026-05-07 20:17 49.26318 8.13189 40062 ft 426 kts 311°
2026-05-07 20:18 49.30459 8.06694 40059 ft 426 kts 311°
2026-05-07 20:18 49.34598 8.00187 40073 ft 427 kts 311°
2026-05-07 20:19 49.38716 7.93695 40064 ft 427 kts 311°
2026-05-07 20:19 49.42860 7.87147 40064 ft 428 kts 311°
2026-05-07 20:20 49.47007 7.80576 40066 ft 428 kts 311°
2026-05-07 20:20 49.51152 7.73990 40064 ft 429 kts 311°
2026-05-07 20:21 49.55268 7.67434 40062 ft 429 kts 311°
2026-05-07 20:21 49.59411 7.60820 40071 ft 429 kts 311°
2026-05-07 20:22 49.63552 7.54190 40067 ft 429 kts 311°
2026-05-07 20:22 49.67691 7.47545 40068 ft 429 kts 311°
2026-05-07 20:23 49.71793 7.40944 40064 ft 428 kts 311°
2026-05-07 20:23 49.75911 7.34299 40068 ft 428 kts 311°
2026-05-07 20:24 49.80030 7.27635 40066 ft 428 kts 311°
2026-05-07 20:24 49.84142 7.20964 40072 ft 428 kts 311°
2026-05-07 20:25 49.88226 7.14322 40070 ft 429 kts 310°
2026-05-07 20:25 49.92341 7.07612 40077 ft 429 kts 310°
2026-05-07 20:26 49.93803 7.05223 40079 ft 429 kts 310°
2026-05-07 20:26 49.97928 6.98472 40077 ft 430 kts 310°
2026-05-07 20:27 50.02011 6.91691 40052 ft 429 kts 307°
2026-05-07 20:27 50.05167 6.83913 40072 ft 425 kts 296°
2026-05-07 20:28 50.07972 6.75811 40057 ft 425 kts 296°
2026-05-07 20:28 50.10785 6.67774 40057 ft 426 kts 296°
2026-05-07 20:29 50.13157 6.61050 40061 ft 426 kts 296°
2026-05-07 20:29 50.15855 6.53402 40072 ft 426 kts 296°
2026-05-07 20:30 50.18703 6.45298 40071 ft 426 kts 296°
2026-05-07 20:30 50.21675 6.37354 40076 ft 427 kts 299°
2026-05-07 20:31 50.24770 6.29459 40079 ft 427 kts 299°
2026-05-07 20:31 50.27858 6.21526 40077 ft 427 kts 298°
2026-05-07 20:32 50.30428 6.14851 40077 ft 427 kts 298°
2026-05-07 20:32 50.33479 6.06875 40075 ft 427 kts 298°
2026-05-07 20:33 50.36503 5.98937 40085 ft 427 kts 298°
2026-05-07 20:33 50.39542 5.90937 40079 ft 427 kts 298°
2026-05-07 20:34 50.42578 5.82922 40078 ft 427 kts 298°
2026-05-07 20:34 50.45585 5.74956 40081 ft 427 kts 298°
2026-05-07 20:35 50.48608 5.66926 40081 ft 427 kts 298°
2026-05-07 20:35 50.51624 5.58889 40092 ft 427 kts 298°
2026-05-07 20:36 50.54636 5.50837 40079 ft 427 kts 298°
2026-05-07 20:36 50.57619 5.42836 40081 ft 427 kts 298°
2026-05-07 20:37 50.60183 5.35941 40080 ft 427 kts 298°
2026-05-07 20:37 50.63174 5.27873 40076 ft 427 kts 298°
2026-05-07 20:38 50.66160 5.19795 40078 ft 426 kts 298°
2026-05-07 20:38 50.69118 5.11765 40085 ft 426 kts 298°
2026-05-07 20:39 50.72091 5.03670 40079 ft 427 kts 298°
2026-05-07 20:39 50.75061 4.95560 40077 ft 427 kts 297°
2026-05-07 20:40 50.78025 4.87437 40092 ft 427 kts 297°
2026-05-07 20:40 50.80968 4.79349 40081 ft 427 kts 297°
2026-05-07 20:41 50.83742 4.71700 40078 ft 427 kts 297°
2026-05-07 20:41 50.86696 4.63530 40106 ft 427 kts 297°
2026-05-07 20:42 50.89645 4.55355 40102 ft 428 kts 298°
2026-05-07 20:42 50.93178 4.47745 40107 ft 430 kts 307°
2026-05-07 20:43 50.97016 4.40531 40101 ft 431 kts 308°
2026-05-07 20:43 51.00857 4.33249 40099 ft 430 kts 307°
2026-05-07 20:44 51.04665 4.25913 40094 ft 430 kts 307°
2026-05-07 20:44 51.08457 4.18550 40093 ft 430 kts 307°
2026-05-07 20:45 51.12214 4.11228 40090 ft 430 kts 307°
2026-05-07 20:45 51.15994 4.03844 40087 ft 430 kts 307°
2026-05-07 20:46 51.19770 3.96449 40085 ft 430 kts 307°
2026-05-07 20:46 51.23541 3.89040 40078 ft 430 kts 307°
2026-05-07 20:47 51.27280 3.81674 40088 ft 430 kts 306°
2026-05-07 20:47 51.31042 3.74244 40083 ft 430 kts 306°
2026-05-07 20:48 51.34627 3.66611 40074 ft 428 kts 297°
2026-05-07 20:48 51.36813 3.57864 40089 ft 423 kts 284°
2026-05-07 20:49 51.38345 3.48794 39602 ft 427 kts 283°
2026-05-07 20:49 51.39116 3.44216 39064 ft 425 kts 283°
2026-05-07 20:49 51.39895 3.39659 38468 ft 424 kts 283°
2026-05-07 20:49 51.40680 3.35111 37799 ft 423 kts 284°
2026-05-07 20:50 51.41467 3.30577 37194 ft 420 kts 284°
2026-05-07 20:50 51.42248 3.26079 36595 ft 418 kts 284°
2026-05-07 20:50 51.43022 3.21609 35981 ft 416 kts 284°
2026-05-07 20:50 51.43792 3.17151 35320 ft 415 kts 284°
2026-05-07 20:51 51.44548 3.12760 34763 ft 412 kts 284°
2026-05-07 20:51 51.45297 3.08367 34357 ft 405 kts 283°
2026-05-07 20:51 51.46017 3.04045 33913 ft 399 kts 283°
2026-05-07 20:51 51.46721 2.99769 33417 ft 394 kts 283°
2026-05-07 20:52 51.47412 2.95548 32936 ft 389 kts 283°
2026-05-07 20:52 51.48093 2.91384 32476 ft 384 kts 283°
2026-05-07 20:52 51.48768 2.87255 32012 ft 381 kts 283°
2026-05-07 20:52 51.49436 2.83165 31554 ft 377 kts 283°
2026-05-07 20:53 51.50097 2.79111 31104 ft 374 kts 283°
2026-05-07 20:53 51.50744 2.75137 30666 ft 372 kts 283°
2026-05-07 20:53 51.51393 2.71137 30225 ft 369 kts 283°
2026-05-07 20:53 51.52037 2.67165 29723 ft 366 kts 283°
2026-05-07 20:54 51.52673 2.63232 29261 ft 362 kts 283°
2026-05-07 20:54 51.53302 2.59339 28800 ft 358 kts 283°
2026-05-07 20:54 51.53923 2.55479 28348 ft 358 kts 283°
2026-05-07 20:54 51.54548 2.51580 27878 ft 362 kts 283°
2026-05-07 20:55 51.55261 2.47713 27407 ft 360 kts 287°
2026-05-07 20:55 51.56109 2.44001 26950 ft 357 kts 289°
2026-05-07 20:55 51.56983 2.40283 26493 ft 354 kts 289°
2026-05-07 20:55 51.57840 2.36582 26032 ft 352 kts 288°
2026-05-07 20:56 51.58683 2.32907 25584 ft 349 kts 288°
2026-05-07 20:56 51.59517 2.29254 25142 ft 347 kts 288°
2026-05-07 20:56 51.60344 2.25618 24707 ft 345 kts 288°
2026-05-07 20:56 51.61167 2.22000 24271 ft 344 kts 288°
2026-05-07 20:57 51.61983 2.18398 23834 ft 342 kts 288°
2026-05-07 20:57 51.62798 2.14862 23350 ft 342 kts 291°
2026-05-07 20:57 51.64043 2.11607 22854 ft 344 kts 308°
2026-05-07 20:57 51.65792 2.08995 22408 ft 345 kts 323°
2026-05-07 20:58 51.67867 2.07067 22000 ft 343 kts 329°
2026-05-07 20:58 51.69986 2.05309 21607 ft 342 kts 330°
2026-05-07 20:58 51.72107 2.03566 21234 ft 341 kts 330°
2026-05-07 20:58 51.74212 2.01820 20858 ft 339 kts 330°
2026-05-07 20:59 51.76302 2.00066 20488 ft 338 kts 330°
2026-05-07 20:59 51.78358 1.98324 20127 ft 339 kts 330°
2026-05-07 20:59 51.80449 1.96542 19762 ft 341 kts 330°
2026-05-07 20:59 51.82547 1.94750 19392 ft 341 kts 330°
2026-05-07 21:00 51.84639 1.92961 19020 ft 340 kts 330°
2026-05-07 21:00 51.86730 1.91169 18649 ft 340 kts 330°
2026-05-07 21:00 51.88794 1.89328 18252 ft 338 kts 323°
2026-05-07 21:00 51.90424 1.86675 17901 ft 330 kts 302°
2026-05-07 21:01 51.91574 1.83499 17613 ft 325 kts 296°
2026-05-07 21:01 51.92626 1.80281 17313 ft 322 kts 295°
2026-05-07 21:01 51.93637 1.77119 17029 ft 319 kts 295°
2026-05-07 21:01 51.94658 1.73936 16753 ft 317 kts 295°
2026-05-07 21:02 51.95679 1.70771 16469 ft 316 kts 296°
2026-05-07 21:02 51.96703 1.67619 16196 ft 316 kts 296°
2026-05-07 21:02 51.97730 1.64469 15916 ft 316 kts 296°
2026-05-07 21:02 51.98759 1.61319 15650 ft 316 kts 296°
2026-05-07 21:03 51.99789 1.58171 15375 ft 316 kts 296°
2026-05-07 21:03 52.00819 1.55020 15100 ft 316 kts 296°
2026-05-07 21:03 52.01850 1.51866 14824 ft 316 kts 296°
2026-05-07 21:03 52.02880 1.48708 14547 ft 317 kts 296°
2026-05-07 21:04 52.03910 1.45550 14281 ft 316 kts 296°
2026-05-07 21:04 52.04939 1.42391 14001 ft 317 kts 296°
2026-05-07 21:04 52.05967 1.39228 13691 ft 316 kts 296°
2026-05-07 21:04 52.06979 1.36115 13387 ft 315 kts 296°
2026-05-07 21:05 52.07998 1.32976 13107 ft 313 kts 296°
2026-05-07 21:05 52.09013 1.29847 12829 ft 312 kts 296°
2026-05-07 21:05 52.10020 1.26733 12553 ft 311 kts 296°
2026-05-07 21:05 52.11019 1.23627 12276 ft 309 kts 294°
2026-05-07 21:06 52.11555 1.20309 12004 ft 301 kts 269°
2026-05-07 21:06 52.11295 1.17012 11827 ft 290 kts 256°
2026-05-07 21:06 52.10793 1.13861 11625 ft 286 kts 253°
2026-05-07 21:06 52.10251 1.10753 11432 ft 286 kts 253°
2026-05-07 21:07 52.09539 1.07749 11217 ft 285 kts 243°
2026-05-07 21:07 52.08657 1.04913 11027 ft 285 kts 242°
2026-05-07 21:07 52.07737 1.02053 10834 ft 286 kts 241°
2026-05-07 21:07 52.06809 0.99188 10610 ft 286 kts 241°
2026-05-07 21:08 52.05879 0.96328 10437 ft 286 kts 241°
2026-05-07 21:08 52.04948 0.93465 10233 ft 286 kts 241°
2026-05-07 21:08 52.04030 0.90642 10032 ft 279 kts 241°
2026-05-07 21:08 52.03135 0.87887 9822 ft 273 kts 241°
2026-05-07 21:09 52.02258 0.85196 9639 ft 267 kts 241°
2026-05-07 21:09 52.01419 0.82625 9487 ft 264 kts 241°
2026-05-07 21:09 52.00545 0.79954 9325 ft 265 kts 241°
2026-05-07 21:09 51.99676 0.77310 9133 ft 266 kts 241°
2026-05-07 21:10 51.98806 0.74666 9001 ft 266 kts 241°
2026-05-07 21:10 51.97934 0.72022 8860 ft 266 kts 241°
2026-05-07 21:10 51.97064 0.69383 8746 ft 265 kts 241°
2026-05-07 21:10 51.96890 0.68858 8727 ft 265 kts 241°
2026-05-07 21:11 51.96096 0.66459 8651 ft 263 kts 241°
2026-05-07 21:11 51.95259 0.63938 8603 ft 260 kts 241°
2026-05-07 21:11 51.93512 0.58694 8136 ft 268 kts 241°
2026-05-07 21:12 51.92630 0.56054 7873 ft 265 kts 241°
2026-05-07 21:12 51.91756 0.53447 7611 ft 262 kts 241°
2026-05-07 21:12 51.90898 0.50904 7356 ft 260 kts 241°
2026-05-07 21:12 51.90038 0.48376 7130 ft 259 kts 241°
2026-05-07 21:13 51.89166 0.45825 6874 ft 259 kts 241°
2026-05-07 21:13 51.88240 0.43337 6620 ft 258 kts 234°
2026-05-07 21:13 51.87135 0.41052 6374 ft 257 kts 231°
2026-05-07 21:14 51.86599 0.39984 6248 ft 257 kts 231°
2026-05-07 21:14 51.85464 0.37733 6061 ft 258 kts 231°
2026-05-07 21:14 51.84334 0.35494 6012 ft 257 kts 231°
2026-05-07 21:14 51.83204 0.33255 6004 ft 256 kts 231°
2026-05-07 21:15 51.82093 0.31056 5985 ft 247 kts 231°
2026-05-07 21:15 51.81026 0.28946 5855 ft 241 kts 231°
2026-05-07 21:15 51.79972 0.26846 5585 ft 241 kts 231°
2026-05-07 21:15 51.78923 0.24740 5327 ft 240 kts 231°
2026-05-07 21:16 51.77890 0.22666 5079 ft 240 kts 231°
2026-05-07 21:16 51.76843 0.20567 4824 ft 240 kts 231°
2026-05-07 21:16 51.75910 0.18696 4597 ft 240 kts 231°
2026-05-07 21:16 51.74862 0.16589 4331 ft 240 kts 231°
2026-05-07 21:17 51.73834 0.14509 4099 ft 233 kts 231°
2026-05-07 21:17 51.72851 0.12503 3859 ft 223 kts 231°
2026-05-07 21:17 51.71911 0.10577 3593 ft 214 kts 231°
2026-05-07 21:17 51.71256 0.08484 3300 ft 210 kts 262°
2026-05-07 21:18 51.71606 0.06259 3077 ft 211 kts 306°
2026-05-07 21:18 51.72830 0.05025 3019 ft 219 kts 350°
2026-05-07 21:18 51.74332 0.05212 3002 ft 216 kts 12°
2026-05-07 21:18 51.75796 0.05639 2992 ft 210 kts 10°
2026-05-07 21:19 51.77099 0.06386 2978 ft 190 kts 38°
2026-05-07 21:19 51.78021 0.07750 2948 ft 173 kts 44°
2026-05-07 21:19 51.78908 0.09046 2769 ft 172 kts 45°
2026-05-07 21:19 51.79779 0.10346 2574 ft 164 kts 45°
2026-05-07 21:20 51.80581 0.11552 2319 ft 152 kts 45°
2026-05-07 21:20 51.81334 0.12712 2014 ft 147 kts 48°
2026-05-07 21:20 51.82059 0.13789 1774 ft 141 kts 47°
2026-05-07 21:20 51.82772 0.14848 1494 ft 136 kts 48°
2026-05-07 21:21 51.83438 0.15860 1299 ft 127 kts 47°
2026-05-07 21:21 51.84074 0.16824 1130 ft 125 kts 47°
2026-05-07 21:21 51.84709 0.17782 1004 ft 126 kts 45°
2026-05-07 21:21 51.84975 0.18173 974 ft 124 kts 47°
2026-05-07 21:22 51.85610 0.19109 842 ft 121 kts 49°
2026-05-07 21:22 51.86216 0.20055 732 ft 124 kts 46°
2026-05-07 21:22 51.86849 0.21017 591 ft 126 kts 45°
2026-05-07 21:22 51.87478 0.21956 415 ft 120 kts 47°
2026-05-07 21:23 51.88101 0.22871 350 ft 119 kts 48°
2026-05-07 21:23 51.88593 0.23624 338 ft 68 kts 42°
2026-05-07 21:23 51.88819 0.24003 333 ft 26 kts 62°
2026-05-07 21:23 51.88884 0.24255 341 ft 17 kts 73°
2026-05-07 21:24 51.88916 0.24433 351 ft 16 kts 77°
2026-05-07 21:24 51.88923 0.24600 353 ft 15 kts 50°
2026-05-07 21:24 51.89000 0.24715 348 ft 15 kts 43°
2026-05-07 21:24 51.89008 0.24863 353 ft 15 kts 117°
2026-05-07 21:25 51.88964 0.25007 348 ft 14 kts 105°
2026-05-07 21:25 51.88904 0.25135 350 ft 15 kts 133°
2026-05-07 21:25 51.88839 0.25247 348 ft 8 kts 133°
2026-05-07 21:25 51.88834 0.25297 352 ft 4 kts 51°
2026-05-07 21:26 51.88857 0.25333 356 ft 5 kts 43°
2026-05-07 21:26 51.88865 0.25346 355 ft 0 kts 43°